Location: C.E.K. Mees Observatory
(42.7003°N, 77.4088°W)
Time: 04:11:39
(UTC-05:00)

Tiangong 2 - Pass Details

Date: 16 October 2017
Orbit: 386 x 389 km, 42.8° (Epoch: 17 December)

Event Time Altitude Azimuth Distance (km) Brightness Sun altitude
Exits shadow 06:13:32 28° 272° (W) 758 1.9 -13.7°
Maximum altitude 06:15:02 74° 192° (SSW) 409 1.1 -13.5°
Drops below altitude 10° 06:18:13 10° 107° (ESE) 1,419 5.2 -12.9°
Sets 06:20:18 0° 105° (ESE) 2,275 6.7 -12.5°
